date,time,water_lv
2017-10-01,00:00:00,64.53
2017-10-01,00:10:00,64.52
2017-10-01,00:20:00,64.52
2017-10-01,00:30:00,64.51
2017-10-01,00:40:00,64.51
2017-10-01,00:50:00,64.5
2017-10-01,01:00:00,64.5
2017-10-01,01:10:00,64.5
2017-10-01,01:20:00,64.49
2017-10-01,01:30:00,64.48
2017-10-01,01:40:00,64.48
2017-10-01,01:50:00,64.48
2017-10-01,02:00:00,64.47
2017-10-01,02:10:00,64.47
2017-10-01,02:20:00,64.46
2017-10-01,02:30:00,64.46
2017-10-01,02:40:00,64.46
2017-10-01,02:50:00,64.45
2017-10-01,03:00:00,64.45
2017-10-01,03:10:00,64.45
2017-10-01,03:20:00,64.44
2017-10-01,03:30:00,64.44
2017-10-01,03:40:00,64.44
2017-10-01,03:50:00,64.43
2017-10-01,04:00:00,64.43
2017-10-01,04:10:00,64.43
2017-10-01,04:20:00,64.43
2017-10-01,04:30:00,64.42
2017-10-01,04:40:00,64.42
2017-10-01,04:50:00,64.42
2017-10-01,05:00:00,64.42
2017-10-01,05:10:00,64.41
2017-10-01,05:20:00,64.41
2017-10-01,05:30:00,64.41
2017-10-01,05:40:00,64.41
2017-10-01,05:50:00,64.41
2017-10-01,06:00:00,64.4
2017-10-01,06:10:00,64.4
2017-10-01,06:20:00,64.4
2017-10-01,06:30:00,64.4
2017-10-01,06:40:00,64.4
2017-10-01,06:50:00,64.4
2017-10-01,07:00:00,64.4
2017-10-01,07:10:00,64.4
2017-10-01,07:20:00,64.4
2017-10-01,07:30:00,64.4
2017-10-01,07:40:00,64.4
2017-10-01,07:50:00,64.4
2017-10-01,08:00:00,64.4
2017-10-01,08:10:00,64.4
2017-10-01,08:20:00,64.4
2017-10-01,08:30:00,64.4
2017-10-01,08:40:00,64.4
2017-10-01,08:50:00,64.4
2017-10-01,09:00:00,64.4
2017-10-01,09:10:00,64.4
2017-10-01,09:20:00,64.4
2017-10-01,09:30:00,64.41
2017-10-01,09:40:00,64.41
2017-10-01,09:50:00,64.41
2017-10-01,10:00:00,64.41
2017-10-01,10:10:00,64.41
2017-10-01,10:20:00,64.42
2017-10-01,10:30:00,64.42
2017-10-01,10:40:00,64.42
2017-10-01,10:50:00,64.42
2017-10-01,11:00:00,64.43
2017-10-01,11:10:00,64.43
2017-10-01,11:20:00,64.43
2017-10-01,11:30:00,64.43
2017-10-01,11:40:00,64.44
2017-10-01,11:50:00,64.44
2017-10-01,12:00:00,64.44
2017-10-01,12:10:00,64.45
2017-10-01,12:20:00,64.45
2017-10-01,12:30:00,64.46
2017-10-01,12:40:00,64.46
2017-10-01,12:50:00,64.46
2017-10-01,13:00:00,64.47
2017-10-01,13:10:00,64.47
2017-10-01,13:20:00,64.47
2017-10-01,13:30:00,64.48
2017-10-01,13:40:00,64.48
2017-10-01,13:50:00,64.49
2017-10-01,14:00:00,64.49
2017-10-01,14:10:00,64.5
2017-10-01,14:20:00,64.5
2017-10-01,14:30:00,64.5
2017-10-01,14:40:00,64.51
2017-10-01,14:50:00,64.51
2017-10-01,15:00:00,64.52
2017-10-01,15:10:00,64.52
2017-10-01,15:20:00,64.52
2017-10-01,15:30:00,64.52
2017-10-01,15:40:00,64.53
2017-10-01,15:50:00,64.54
2017-10-01,16:00:00,64.54
2017-10-01,16:10:00,64.55
2017-10-01,16:20:00,64.55
2017-10-01,16:30:00,64.55
2017-10-01,16:40:00,64.56
2017-10-01,16:50:00,64.56
2017-10-01,17:00:00,64.57
2017-10-01,17:10:00,64.57
2017-10-01,17:20:00,64.58
2017-10-01,17:30:00,64.58
2017-10-01,17:40:00,64.59
2017-10-01,17:50:00,64.59
2017-10-01,18:00:00,64.6
2017-10-01,18:10:00,64.6
2017-10-01,18:20:00,64.61
2017-10-01,18:30:00,64.61
2017-10-01,18:40:00,64.61
2017-10-01,18:50:00,64.62
2017-10-01,19:00:00,64.62
2017-10-01,19:10:00,64.63
2017-10-01,19:20:00,64.63
2017-10-01,19:30:00,64.64
2017-10-01,19:40:00,64.64
2017-10-01,19:50:00,64.64
2017-10-01,20:00:00,64.64
2017-10-01,20:10:00,64.65
2017-10-01,20:20:00,64.65
2017-10-01,20:30:00,64.66
2017-10-01,20:40:00,64.66
2017-10-01,20:50:00,64.66
2017-10-01,21:00:00,64.67
2017-10-01,21:10:00,64.67
2017-10-01,21:20:00,64.67
2017-10-01,21:30:00,64.67
2017-10-01,21:40:00,64.68
2017-10-01,21:50:00,64.68
2017-10-01,22:00:00,64.68
2017-10-01,22:10:00,64.69
2017-10-01,22:20:00,64.69
2017-10-01,22:30:00,64.69
2017-10-01,22:40:00,64.69
2017-10-01,22:50:00,64.69
2017-10-01,23:00:00,64.7
2017-10-01,23:10:00,64.7
2017-10-01,23:20:00,64.7
2017-10-01,23:30:00,64.7
2017-10-01,23:40:00,64.71
2017-10-01,23:50:00,64.71
2017-10-02,00:00:00,64.71
2017-10-02,00:10:00,64.71
2017-10-02,00:20:00,64.71
2017-10-02,00:30:00,64.72
2017-10-02,00:40:00,64.72
2017-10-02,00:50:00,64.72
2017-10-02,01:00:00,64.72
2017-10-02,01:10:00,64.72
2017-10-02,01:20:00,64.72
2017-10-02,01:30:00,64.72
2017-10-02,01:40:00,64.72
2017-10-02,01:50:00,64.72
2017-10-02,02:00:00,64.72
2017-10-02,02:10:00,64.73
2017-10-02,02:20:00,64.72
2017-10-02,02:30:00,64.73
2017-10-02,02:40:00,64.73
2017-10-02,02:50:00,64.72
2017-10-02,03:00:00,64.72
2017-10-02,03:10:00,64.73
2017-10-02,03:20:00,64.73
2017-10-02,03:30:00,64.73
2017-10-02,03:40:00,64.73
2017-10-02,03:50:00,64.73
2017-10-02,04:00:00,64.73
2017-10-02,04:10:00,64.73
2017-10-02,04:20:00,64.73
2017-10-02,04:30:00,64.73
2017-10-02,04:40:00,64.73
2017-10-02,04:50:00,64.72
2017-10-02,05:00:00,64.72
2017-10-02,05:10:00,64.73
2017-10-02,05:20:00,64.72
2017-10-02,05:30:00,64.72
2017-10-02,05:40:00,64.72
2017-10-02,05:50:00,64.72
2017-10-02,06:00:00,64.72
2017-10-02,06:10:00,64.72
2017-10-02,06:20:00,64.72
2017-10-02,06:30:00,64.72
2017-10-02,06:40:00,64.71
2017-10-02,06:50:00,64.71
2017-10-02,07:00:00,64.72
2017-10-02,07:10:00,64.71
2017-10-02,07:20:00,64.71
2017-10-02,07:30:00,64.71
2017-10-02,07:40:00,64.71
2017-10-02,07:50:00,64.71
2017-10-02,08:00:00,64.7
2017-10-02,08:10:00,64.7
2017-10-02,08:20:00,64.7
2017-10-02,08:30:00,64.7
2017-10-02,08:40:00,64.69
2017-10-02,08:50:00,64.69
2017-10-02,09:00:00,64.69
2017-10-02,09:10:00,64.69
2017-10-02,09:20:00,64.69
2017-10-02,09:30:00,64.69
2017-10-02,09:40:00,64.68
2017-10-02,09:50:00,64.68
2017-10-02,10:00:00,64.68
2017-10-02,10:10:00,64.68
2017-10-02,10:20:00,64.67
2017-10-02,10:30:00,64.67
2017-10-02,10:40:00,64.67
2017-10-02,10:50:00,64.67
2017-10-02,11:00:00,64.67
2017-10-02,11:10:00,64.67
2017-10-02,11:20:00,64.67
2017-10-02,11:30:00,64.66
2017-10-02,11:40:00,64.66
2017-10-02,11:50:00,64.66
2017-10-02,12:00:00,64.66
2017-10-02,12:10:00,64.66
2017-10-02,12:20:00,64.66
2017-10-02,12:30:00,64.66
2017-10-02,12:40:00,64.66
2017-10-02,12:50:00,64.65
2017-10-02,13:00:00,64.65
2017-10-02,13:10:00,64.65
2017-10-02,13:20:00,64.65
2017-10-02,13:30:00,64.64
2017-10-02,13:40:00,64.64
2017-10-02,13:50:00,64.64
2017-10-02,14:00:00,64.64
2017-10-02,14:10:00,64.64
2017-10-02,14:20:00,64.63
2017-10-02,14:30:00,64.63
2017-10-02,14:40:00,64.63
2017-10-02,14:50:00,64.63
2017-10-02,15:00:00,64.63
2017-10-02,15:10:00,64.62
2017-10-02,15:20:00,64.62
2017-10-02,15:30:00,64.62
2017-10-02,15:40:00,64.61
2017-10-02,15:50:00,64.61
2017-10-02,16:00:00,64.61
2017-10-02,16:10:00,64.61
2017-10-02,16:20:00,64.61
2017-10-02,16:30:00,64.61
2017-10-02,16:40:00,64.61
2017-10-02,16:50:00,64.6
2017-10-02,17:00:00,64.6
2017-10-02,17:10:00,64.6
2017-10-02,17:20:00,64.6
2017-10-02,17:30:00,64.6
2017-10-02,17:40:00,64.6
2017-10-02,17:50:00,64.59
2017-10-02,18:00:00,64.6
2017-10-02,18:10:00,64.59
2017-10-02,18:20:00,64.59
2017-10-02,18:30:00,64.59
2017-10-02,18:40:00,64.58
2017-10-02,18:50:00,-
2017-10-02,19:00:00,-
2017-10-02,19:10:00,-
2017-10-02,19:20:00,-
2017-10-02,19:30:00,-
2017-10-02,19:40:00,-
2017-10-02,19:50:00,-
2017-10-02,20:00:00,-
2017-10-02,20:10:00,-
2017-10-02,20:20:00,-
2017-10-02,20:30:00,-
2017-10-02,20:40:00,-
2017-10-02,20:50:00,-
2017-10-02,21:00:00,-
2017-10-02,21:10:00,-
2017-10-02,21:20:00,-
2017-10-02,21:30:00,-
2017-10-02,21:40:00,-
2017-10-02,21:50:00,-
2017-10-02,22:00:00,-
2017-10-02,22:10:00,-
2017-10-02,22:20:00,-
2017-10-02,22:30:00,-
2017-10-02,22:40:00,-
2017-10-02,22:50:00,-
2017-10-02,23:00:00,-
2017-10-02,23:10:00,-
2017-10-02,23:20:00,-
2017-10-02,23:30:00,-
2017-10-02,23:40:00,-
2017-10-02,23:50:00,-
2017-10-03,00:00:00,-
2017-10-03,00:10:00,64.52
2017-10-03,00:20:00,64.52
2017-10-03,00:30:00,64.52
2017-10-03,00:40:00,64.52
2017-10-03,00:50:00,64.52
2017-10-03,01:00:00,64.52
2017-10-03,01:10:00,64.51
2017-10-03,01:20:00,64.51
2017-10-03,01:30:00,64.51
2017-10-03,01:40:00,64.51
2017-10-03,01:50:00,64.51
2017-10-03,02:00:00,64.51
2017-10-03,02:10:00,64.5
2017-10-03,02:20:00,64.5
2017-10-03,02:30:00,64.5
2017-10-03,02:40:00,64.5
2017-10-03,02:50:00,64.5
2017-10-03,03:00:00,64.5
2017-10-03,03:10:00,64.5
2017-10-03,03:20:00,64.49
2017-10-03,03:30:00,64.49
2017-10-03,03:40:00,64.49
2017-10-03,03:50:00,64.49
2017-10-03,04:00:00,64.48
2017-10-03,04:10:00,64.48
2017-10-03,04:20:00,64.48
2017-10-03,04:30:00,64.48
2017-10-03,04:40:00,64.48
2017-10-03,04:50:00,64.47
2017-10-03,05:00:00,64.47
2017-10-03,05:10:00,64.47
2017-10-03,05:20:00,64.47
2017-10-03,05:30:00,64.46
2017-10-03,05:40:00,64.46
2017-10-03,05:50:00,64.46
2017-10-03,06:00:00,64.45
2017-10-03,06:10:00,64.45
2017-10-03,06:20:00,64.45
2017-10-03,06:30:00,64.44
2017-10-03,06:40:00,64.44
2017-10-03,06:50:00,64.44
2017-10-03,07:00:00,64.43
2017-10-03,07:10:00,64.43
2017-10-03,07:20:00,64.43
2017-10-03,07:30:00,64.42
2017-10-03,07:40:00,64.42
2017-10-03,07:50:00,64.41
2017-10-03,08:00:00,64.41
2017-10-03,08:10:00,64.4
2017-10-03,08:20:00,64.4
2017-10-03,08:30:00,64.4
2017-10-03,08:40:00,64.39
2017-10-03,08:50:00,64.38
2017-10-03,09:00:00,64.38
2017-10-03,09:10:00,64.38
2017-10-03,09:20:00,64.37
2017-10-03,09:30:00,64.37
2017-10-03,09:40:00,64.36
2017-10-03,09:50:00,64.36
2017-10-03,10:00:00,64.35
2017-10-03,10:10:00,64.34
2017-10-03,10:20:00,64.34
2017-10-03,10:30:00,64.34
2017-10-03,10:40:00,64.33
2017-10-03,10:50:00,64.33
2017-10-03,11:00:00,64.32
2017-10-03,11:10:00,64.32
2017-10-03,11:20:00,64.31
2017-10-03,11:30:00,64.3
2017-10-03,11:40:00,64.3
2017-10-03,11:50:00,64.29
2017-10-03,12:00:00,64.29
2017-10-03,12:10:00,64.28
2017-10-03,12:20:00,64.28
2017-10-03,12:30:00,64.28
2017-10-03,12:40:00,64.27
2017-10-03,12:50:00,64.27
2017-10-03,13:00:00,64.26
2017-10-03,13:10:00,64.26
2017-10-03,13:20:00,64.25
2017-10-03,13:30:00,64.25
2017-10-03,13:40:00,64.25
2017-10-03,13:50:00,64.24
2017-10-03,14:00:00,64.24
2017-10-03,14:10:00,64.23
2017-10-03,14:20:00,64.23
2017-10-03,14:30:00,64.22
2017-10-03,14:40:00,64.22
2017-10-03,14:50:00,64.22
2017-10-03,15:00:00,64.22
2017-10-03,15:10:00,64.22
2017-10-03,15:20:00,64.21
2017-10-03,15:30:00,64.21
2017-10-03,15:40:00,64.2
2017-10-03,15:50:00,64.2
2017-10-03,16:00:00,64.19
2017-10-03,16:10:00,64.19
2017-10-03,16:20:00,64.18
2017-10-03,16:30:00,64.18
2017-10-03,16:40:00,64.17
2017-10-03,16:50:00,64.17
2017-10-03,17:00:00,64.16
2017-10-03,17:10:00,64.16
2017-10-03,17:20:00,64.15
2017-10-03,17:30:00,64.15
2017-10-03,17:40:00,64.14
2017-10-03,17:50:00,64.14
2017-10-03,18:00:00,64.13
2017-10-03,18:10:00,64.13
2017-10-03,18:20:00,64.12
2017-10-03,18:30:00,64.12
2017-10-03,18:40:00,64.12
2017-10-03,18:50:00,64.11
2017-10-03,19:00:00,64.11
2017-10-03,19:10:00,64.1
2017-10-03,19:20:00,64.1
2017-10-03,19:30:00,64.09
2017-10-03,19:40:00,64.09
2017-10-03,19:50:00,64.09
2017-10-03,20:00:00,64.08
2017-10-03,20:10:00,64.08
2017-10-03,20:20:00,64.07
2017-10-03,20:30:00,64.07
2017-10-03,20:40:00,64.06
2017-10-03,20:50:00,64.06
2017-10-03,21:00:00,64.05
2017-10-03,21:10:00,64.05
2017-10-03,21:20:00,64.05
2017-10-03,21:30:00,64.04
2017-10-03,21:40:00,64.04
2017-10-03,21:50:00,64.04
2017-10-03,22:00:00,64.03
2017-10-03,22:10:00,64.03
2017-10-03,22:20:00,64.03
2017-10-03,22:30:00,64.02
2017-10-03,22:40:00,64.02
2017-10-03,22:50:00,64.02
2017-10-03,23:00:00,64.01
2017-10-03,23:10:00,64.01
2017-10-03,23:20:00,64.01
2017-10-03,23:30:00,64.01
2017-10-03,23:40:00,64.01
2017-10-03,23:50:00,64.01
2017-10-04,00:00:00,64.01
2017-10-04,00:10:00,64.01
2017-10-04,00:20:00,64.01
2017-10-04,00:30:00,64.01
2017-10-04,00:40:00,64.01
2017-10-04,00:50:00,64.01
2017-10-04,01:00:00,64.02
2017-10-04,01:10:00,64.02
2017-10-04,01:20:00,64.02
2017-10-04,01:30:00,64.03
2017-10-04,01:40:00,64.03
2017-10-04,01:50:00,64.03
2017-10-04,02:00:00,64.04
2017-10-04,02:10:00,64.04
2017-10-04,02:20:00,64.05
2017-10-04,02:30:00,64.06
2017-10-04,02:40:00,64.06
2017-10-04,02:50:00,64.07
2017-10-04,03:00:00,64.08
2017-10-04,03:10:00,64.09
2017-10-04,03:20:00,64.1
2017-10-04,03:30:00,64.11
2017-10-04,03:40:00,64.12
2017-10-04,03:50:00,64.14
2017-10-04,04:00:00,64.14
2017-10-04,04:10:00,64.16
2017-10-04,04:20:00,64.17
2017-10-04,04:30:00,64.18
2017-10-04,04:40:00,64.2
2017-10-04,04:50:00,64.21
2017-10-04,05:00:00,64.23
2017-10-04,05:10:00,64.24
2017-10-04,05:20:00,64.26
2017-10-04,05:30:00,64.27
2017-10-04,05:40:00,64.29
2017-10-04,05:50:00,64.3
2017-10-04,06:00:00,64.32
2017-10-04,06:10:00,64.33
2017-10-04,06:20:00,64.35
2017-10-04,06:30:00,64.37
2017-10-04,06:40:00,64.39
2017-10-04,06:50:00,64.41
2017-10-04,07:00:00,64.42
2017-10-04,07:10:00,64.44
2017-10-04,07:20:00,64.45
2017-10-04,07:30:00,64.47
2017-10-04,07:40:00,64.49
2017-10-04,07:50:00,64.51
2017-10-04,08:00:00,64.52
2017-10-04,08:10:00,64.54
2017-10-04,08:20:00,64.56
2017-10-04,08:30:00,64.57
2017-10-04,08:40:00,64.59
2017-10-04,08:50:00,64.61
2017-10-04,09:00:00,64.63
2017-10-04,09:10:00,64.64
2017-10-04,09:20:00,64.66
2017-10-04,09:30:00,64.68
2017-10-04,09:40:00,64.7
2017-10-04,09:50:00,64.71
2017-10-04,10:00:00,64.73
2017-10-04,10:10:00,64.75
2017-10-04,10:20:00,64.76
2017-10-04,10:30:00,64.77
2017-10-04,10:40:00,64.79
2017-10-04,10:50:00,64.81
2017-10-04,11:00:00,64.82
2017-10-04,11:10:00,64.84
2017-10-04,11:20:00,64.85
2017-10-04,11:30:00,64.86
2017-10-04,11:40:00,64.88
2017-10-04,11:50:00,64.89
2017-10-04,12:00:00,64.9
2017-10-04,12:10:00,64.92
2017-10-04,12:20:00,64.93
2017-10-04,12:30:00,64.94
2017-10-04,12:40:00,64.96
2017-10-04,12:50:00,64.97
2017-10-04,13:00:00,64.98
2017-10-04,13:10:00,64.99
2017-10-04,13:20:00,65.01
2017-10-04,13:30:00,65.02
2017-10-04,13:40:00,65.03
2017-10-04,13:50:00,65.03
2017-10-04,14:00:00,65.06
2017-10-04,14:10:00,65.07
2017-10-04,14:20:00,65.07
2017-10-04,14:30:00,65.09
2017-10-04,14:40:00,65.1
2017-10-04,14:50:00,65.11
2017-10-04,15:00:00,65.12
2017-10-04,15:10:00,65.13
2017-10-04,15:20:00,65.14
2017-10-04,15:30:00,65.15
2017-10-04,15:40:00,65.16
2017-10-04,15:50:00,65.16
2017-10-04,16:00:00,65.18
2017-10-04,16:10:00,65.18
2017-10-04,16:20:00,65.19
2017-10-04,16:30:00,65.2
2017-10-04,16:40:00,65.2
2017-10-04,16:50:00,65.22
2017-10-04,17:00:00,65.22
2017-10-04,17:10:00,65.23
2017-10-04,17:20:00,65.24
2017-10-04,17:30:00,65.24
2017-10-04,17:40:00,65.25
2017-10-04,17:50:00,65.26
2017-10-04,18:00:00,65.27
2017-10-04,18:10:00,65.27
2017-10-04,18:20:00,65.28
2017-10-04,18:30:00,65.29
2017-10-04,18:40:00,65.29
2017-10-04,18:50:00,65.3
2017-10-04,19:00:00,65.31
2017-10-04,19:10:00,65.31
2017-10-04,19:20:00,65.31
2017-10-04,19:30:00,65.32
2017-10-04,19:40:00,65.33
2017-10-04,19:50:00,65.33
2017-10-04,20:00:00,65.34
2017-10-04,20:10:00,65.35
2017-10-04,20:20:00,65.35
2017-10-04,20:30:00,65.36
2017-10-04,20:40:00,65.37
2017-10-04,20:50:00,65.37
2017-10-04,21:00:00,65.38
2017-10-04,21:10:00,65.38
2017-10-04,21:20:00,65.38
2017-10-04,21:30:00,65.39
2017-10-04,21:40:00,65.4
2017-10-04,21:50:00,65.4
2017-10-04,22:00:00,65.41
2017-10-04,22:10:00,65.41
2017-10-04,22:20:00,65.42
2017-10-04,22:30:00,65.43
2017-10-04,22:40:00,65.43
2017-10-04,22:50:00,65.44
2017-10-04,23:00:00,65.45
2017-10-04,23:10:00,65.45
2017-10-04,23:20:00,65.46
2017-10-04,23:30:00,65.46
2017-10-04,23:40:00,65.47
2017-10-04,23:50:00,65.48
2017-10-05,00:00:00,65.49
2017-10-05,00:10:00,65.49
2017-10-05,00:20:00,65.5
2017-10-05,00:30:00,65.51
2017-10-05,00:40:00,65.52
2017-10-05,00:50:00,65.54
2017-10-05,01:00:00,65.55
2017-10-05,01:10:00,65.57
2017-10-05,01:20:00,65.57
2017-10-05,01:30:00,65.58
2017-10-05,01:40:00,65.59
2017-10-05,01:50:00,65.6
2017-10-05,02:00:00,65.61
2017-10-05,02:10:00,65.61
2017-10-05,02:20:00,65.62
2017-10-05,02:30:00,65.63
2017-10-05,02:40:00,65.64
2017-10-05,02:50:00,65.65
2017-10-05,03:00:00,65.66
2017-10-05,03:10:00,65.67
2017-10-05,03:20:00,65.68
2017-10-05,03:30:00,65.69
2017-10-05,03:40:00,65.7
2017-10-05,03:50:00,65.71
2017-10-05,04:00:00,65.72
2017-10-05,04:10:00,65.74
2017-10-05,04:20:00,65.74
2017-10-05,04:30:00,65.76
2017-10-05,04:40:00,65.77
2017-10-05,04:50:00,65.78
2017-10-05,05:00:00,65.79
2017-10-05,05:10:00,65.8
2017-10-05,05:20:00,65.81
2017-10-05,05:30:00,65.83
2017-10-05,05:40:00,65.84
2017-10-05,05:50:00,65.86
2017-10-05,06:00:00,65.88
2017-10-05,06:10:00,65.89
2017-10-05,06:20:00,65.9
2017-10-05,06:30:00,65.91
2017-10-05,06:40:00,65.92
2017-10-05,06:50:00,65.94
2017-10-05,07:00:00,65.95
2017-10-05,07:10:00,65.96
2017-10-05,07:20:00,65.98
2017-10-05,07:30:00,65.99
2017-10-05,07:40:00,66
2017-10-05,07:50:00,66.01
2017-10-05,08:00:00,66.03
2017-10-05,08:10:00,66.03
2017-10-05,08:20:00,66.05
2017-10-05,08:30:00,66.06
2017-10-05,08:40:00,66.07
2017-10-05,08:50:00,66.08
2017-10-05,09:00:00,66.09
2017-10-05,09:10:00,66.11
2017-10-05,09:20:00,66.12
2017-10-05,09:30:00,66.13
2017-10-05,09:40:00,66.14
2017-10-05,09:50:00,66.16
2017-10-05,10:00:00,66.17
2017-10-05,10:10:00,66.19
2017-10-05,10:20:00,66.2
2017-10-05,10:30:00,66.21
2017-10-05,10:40:00,66.23
2017-10-05,10:50:00,66.23
2017-10-05,11:00:00,66.25
2017-10-05,11:10:00,66.26
2017-10-05,11:20:00,66.27
2017-10-05,11:30:00,66.28
2017-10-05,11:40:00,66.29
2017-10-05,11:50:00,66.3
2017-10-05,12:00:00,66.32
2017-10-05,12:10:00,66.33
2017-10-05,12:20:00,66.34
2017-10-05,12:30:00,66.37
2017-10-05,12:40:00,66.37
2017-10-05,12:50:00,66.38
2017-10-05,13:00:00,66.4
2017-10-05,13:10:00,66.4
2017-10-05,13:20:00,66.41
2017-10-05,13:30:00,66.43
2017-10-05,13:40:00,66.45
2017-10-05,13:50:00,66.45
2017-10-05,14:00:00,66.46
2017-10-05,14:10:00,66.48
2017-10-05,14:20:00,66.49
2017-10-05,14:30:00,66.5
2017-10-05,14:40:00,66.52
2017-10-05,14:50:00,66.53
2017-10-05,15:00:00,66.54
2017-10-05,15:10:00,66.55
2017-10-05,15:20:00,66.57
2017-10-05,15:30:00,66.58
2017-10-05,15:40:00,66.59
2017-10-05,15:50:00,66.6
2017-10-05,16:00:00,66.61
2017-10-05,16:10:00,66.62
2017-10-05,16:20:00,66.63
2017-10-05,16:30:00,66.65
2017-10-05,16:40:00,66.66
2017-10-05,16:50:00,66.67
2017-10-05,17:00:00,66.68
2017-10-05,17:10:00,66.7
2017-10-05,17:20:00,66.71
2017-10-05,17:30:00,66.72
2017-10-05,17:40:00,66.73
2017-10-05,17:50:00,66.75
2017-10-05,18:00:00,66.75
2017-10-05,18:10:00,66.76
2017-10-05,18:20:00,66.77
2017-10-05,18:30:00,66.79
2017-10-05,18:40:00,66.79
2017-10-05,18:50:00,66.81
2017-10-05,19:00:00,66.82
2017-10-05,19:10:00,66.83
2017-10-05,19:20:00,66.84
2017-10-05,19:30:00,66.85
2017-10-05,19:40:00,66.86
2017-10-05,19:50:00,66.87
2017-10-05,20:00:00,66.88
2017-10-05,20:10:00,66.89
2017-10-05,20:20:00,66.9
2017-10-05,20:30:00,66.91
2017-10-05,20:40:00,66.92
2017-10-05,20:50:00,66.93
2017-10-05,21:00:00,66.94
2017-10-05,21:10:00,66.95
2017-10-05,21:20:00,66.96
2017-10-05,21:30:00,66.97
2017-10-05,21:40:00,66.97
2017-10-05,21:50:00,66.99
2017-10-05,22:00:00,67
2017-10-05,22:10:00,67.01
2017-10-05,22:20:00,67.02
2017-10-05,22:30:00,67.02
2017-10-05,22:40:00,67.03
2017-10-05,22:50:00,67.05
2017-10-05,23:00:00,67.05
2017-10-05,23:10:00,67.06
2017-10-05,23:20:00,67.07
2017-10-05,23:30:00,67.08
2017-10-05,23:40:00,67.09
2017-10-05,23:50:00,67.11
2017-10-06,00:00:00,67.11
2017-10-06,00:10:00,67.12
2017-10-06,00:20:00,67.13
2017-10-06,00:30:00,67.14
2017-10-06,00:40:00,67.15
2017-10-06,00:50:00,67.17
2017-10-06,01:00:00,67.17
2017-10-06,01:10:00,67.18
2017-10-06,01:20:00,67.19
2017-10-06,01:30:00,67.2
2017-10-06,01:40:00,67.21
2017-10-06,01:50:00,67.22
2017-10-06,02:00:00,67.22
2017-10-06,02:10:00,67.24
2017-10-06,02:20:00,67.24
2017-10-06,02:30:00,67.25
2017-10-06,02:40:00,67.26
2017-10-06,02:50:00,67.27
2017-10-06,03:00:00,67.28
2017-10-06,03:10:00,67.29
2017-10-06,03:20:00,67.3
2017-10-06,03:30:00,67.31
2017-10-06,03:40:00,67.31
2017-10-06,03:50:00,67.32
2017-10-06,04:00:00,67.33
2017-10-06,04:10:00,67.34
2017-10-06,04:20:00,67.34
2017-10-06,04:30:00,67.35
2017-10-06,04:40:00,67.36
2017-10-06,04:50:00,67.37
2017-10-06,05:00:00,67.37
2017-10-06,05:10:00,67.39
2017-10-06,05:20:00,67.39
2017-10-06,05:30:00,67.39
2017-10-06,05:40:00,67.4
2017-10-06,05:50:00,67.4
2017-10-06,06:00:00,67.41
2017-10-06,06:10:00,67.41
2017-10-06,06:20:00,67.42
2017-10-06,06:30:00,67.42
2017-10-06,06:40:00,67.42
2017-10-06,06:50:00,67.43
2017-10-06,07:00:00,67.44
2017-10-06,07:10:00,67.44
2017-10-06,07:20:00,67.44
2017-10-06,07:30:00,67.45
2017-10-06,07:40:00,67.45
2017-10-06,07:50:00,67.46
2017-10-06,08:00:00,67.45
2017-10-06,08:10:00,67.46
2017-10-06,08:20:00,67.46
2017-10-06,08:30:00,67.47
2017-10-06,08:40:00,67.47
2017-10-06,08:50:00,67.47
2017-10-06,09:00:00,67.47
2017-10-06,09:10:00,67.48
2017-10-06,09:20:00,67.48
2017-10-06,09:30:00,67.48
2017-10-06,09:40:00,67.48
2017-10-06,09:50:00,67.48
2017-10-06,10:00:00,67.48
2017-10-06,10:10:00,67.47
2017-10-06,10:20:00,67.48
2017-10-06,10:30:00,67.47
2017-10-06,10:40:00,67.47
2017-10-06,10:50:00,67.47
2017-10-06,11:00:00,67.47
2017-10-06,11:10:00,67.47
2017-10-06,11:20:00,67.47
2017-10-06,11:30:00,67.47
2017-10-06,11:40:00,67.47
2017-10-06,11:50:00,67.47
2017-10-06,12:00:00,67.46
2017-10-06,12:10:00,67.46
2017-10-06,12:20:00,67.47
2017-10-06,12:30:00,67.46
2017-10-06,12:40:00,67.45
2017-10-06,12:50:00,67.46
2017-10-06,13:00:00,67.45
2017-10-06,13:10:00,67.45
2017-10-06,13:20:00,67.44
2017-10-06,13:30:00,67.43
2017-10-06,13:40:00,67.43
2017-10-06,13:50:00,67.43
2017-10-06,14:00:00,67.42
2017-10-06,14:10:00,67.42
2017-10-06,14:20:00,67.42
2017-10-06,14:30:00,67.42
2017-10-06,14:40:00,67.41
2017-10-06,14:50:00,67.41
2017-10-06,15:00:00,67.41
2017-10-06,15:10:00,67.41
2017-10-06,15:20:00,67.4
2017-10-06,15:30:00,67.4
2017-10-06,15:40:00,67.39
2017-10-06,15:50:00,67.4
2017-10-06,16:00:00,67.39
2017-10-06,16:10:00,67.38
2017-10-06,16:20:00,67.38
2017-10-06,16:30:00,67.37
2017-10-06,16:40:00,67.36
2017-10-06,16:50:00,67.36
2017-10-06,17:00:00,67.35
2017-10-06,17:10:00,67.35
2017-10-06,17:20:00,67.34
2017-10-06,17:30:00,67.34
2017-10-06,17:40:00,67.32
2017-10-06,17:50:00,67.32
2017-10-06,18:00:00,67.31
2017-10-06,18:10:00,67.3
2017-10-06,18:20:00,67.29
2017-10-06,18:30:00,67.29
2017-10-06,18:40:00,67.28
2017-10-06,18:50:00,67.28
2017-10-06,19:00:00,67.27
2017-10-06,19:10:00,67.26
2017-10-06,19:20:00,67.25
2017-10-06,19:30:00,67.24
2017-10-06,19:40:00,67.23
2017-10-06,19:50:00,67.23
2017-10-06,20:00:00,67.22
2017-10-06,20:10:00,67.21
2017-10-06,20:20:00,67.2
2017-10-06,20:30:00,67.19
2017-10-06,20:40:00,67.18
2017-10-06,20:50:00,67.17
2017-10-06,21:00:00,67.17
2017-10-06,21:10:00,67.16
2017-10-06,21:20:00,67.15
2017-10-06,21:30:00,67.14
2017-10-06,21:40:00,67.13
2017-10-06,21:50:00,67.12
2017-10-06,22:00:00,67.11
2017-10-06,22:10:00,67.1
2017-10-06,22:20:00,67.09
2017-10-06,22:30:00,67.09
2017-10-06,22:40:00,67.08
2017-10-06,22:50:00,67.06
2017-10-06,23:00:00,67.05
2017-10-06,23:10:00,67.04
2017-10-06,23:20:00,67.03
2017-10-06,23:30:00,67.02
2017-10-06,23:40:00,67.01
2017-10-06,23:50:00,67
2017-10-07,00:00:00,66.99
2017-10-07,00:10:00,66.99
2017-10-07,00:20:00,66.97
2017-10-07,00:30:00,66.96
2017-10-07,00:40:00,66.95
2017-10-07,00:50:00,66.94
2017-10-07,01:00:00,66.93
2017-10-07,01:10:00,66.92
2017-10-07,01:20:00,66.91
2017-10-07,01:30:00,66.89
2017-10-07,01:40:00,66.89
2017-10-07,01:50:00,66.88
2017-10-07,02:00:00,66.86
2017-10-07,02:10:00,66.86
2017-10-07,02:20:00,66.84
2017-10-07,02:30:00,66.84
2017-10-07,02:40:00,66.83
2017-10-07,02:50:00,66.81
2017-10-07,03:00:00,66.8
2017-10-07,03:10:00,66.79
2017-10-07,03:20:00,66.78
2017-10-07,03:30:00,66.78
2017-10-07,03:40:00,66.76
2017-10-07,03:50:00,66.75
2017-10-07,04:00:00,66.74
2017-10-07,04:10:00,66.73
2017-10-07,04:20:00,66.72
2017-10-07,04:30:00,66.7
2017-10-07,04:40:00,66.69
2017-10-07,04:50:00,66.69
2017-10-07,05:00:00,66.67
2017-10-07,05:10:00,66.66
2017-10-07,05:20:00,66.65
2017-10-07,05:30:00,66.64
2017-10-07,05:40:00,66.63
2017-10-07,05:50:00,66.62
2017-10-07,06:00:00,66.61
2017-10-07,06:10:00,66.59
2017-10-07,06:20:00,66.59
2017-10-07,06:30:00,66.57
2017-10-07,06:40:00,66.56
2017-10-07,06:50:00,66.56
2017-10-07,07:00:00,66.54
2017-10-07,07:10:00,66.53
2017-10-07,07:20:00,66.52
2017-10-07,07:30:00,66.51
2017-10-07,07:40:00,66.5
2017-10-07,07:50:00,66.49
2017-10-07,08:00:00,66.48
2017-10-07,08:10:00,66.46
2017-10-07,08:20:00,66.45
2017-10-07,08:30:00,66.44
2017-10-07,08:40:00,66.43
2017-10-07,08:50:00,66.42
2017-10-07,09:00:00,66.42
2017-10-07,09:10:00,66.4
2017-10-07,09:20:00,66.39
2017-10-07,09:30:00,66.39
2017-10-07,09:40:00,66.38
2017-10-07,09:50:00,66.37
2017-10-07,10:00:00,66.37
2017-10-07,10:10:00,66.35
2017-10-07,10:20:00,66.34
2017-10-07,10:30:00,66.34
2017-10-07,10:40:00,66.33
2017-10-07,10:50:00,66.31
2017-10-07,11:00:00,66.31